WA4OPQ-1 Weather Reports


Display with metric or nautical units.
time (UTC)temp
F
wind
direction
speed
MPH
gust
MPH
rain 1hr
in
rain 24hr
in
rain mn
in
humidity
%
barometer
mb
20260906012703 81 325 0.0 0.0 0.00 0.00 0.00 87 1008.4
20260906011825 81 325 0.0 0.0 0.00 0.00 0.00 86 1008.2
20260906010848 82 325 0.0 0.0 0.00 0.00 0.00 86 1008.3
20260906005933 82 325 0.0 0.0 0.00 0.00 0.00 86 1008.3
20260906004938 82 325 0.0 0.0 0.00 0.00 0.00 85 1007.8
20260906004013 82 325 0.0 0.0 0.00 0.00 0.00 85 1008.1
20260906003038 82 325 0.0 0.0 0.00 0.00 0.00 85 1008.1
20260906002043 83 325 0.0 0.0 0.00 0.00 0.00 84 1008.0
20260906001213 84 325 0.0 0.0 0.00 0.00 0.00 83 1008.0
20260906000256 84 325 0.0 0.0 0.00 0.00 0.00 82 1008.1
20260905235441 85 325 0.0 0.0 0.00 0.00 0.00 81 1008.0
20260905234443 86 325 0.0 0.0 0.00 0.00 0.00 79 1008.1
20260905233608 86 325 0.0 0.0 0.00 0.00 0.00 77 1008.1
20260905232708 87 325 0.0 0.0 0.00 0.00 0.00 77 1008.2
20260905231843 87 325 0.0 0.0 0.00 0.00 0.00 75 1008.0
20260905230848 88 325 0.0 0.0 0.00 0.00 0.00 73 1007.8
20260905225903 88 325 0.0 0.0 0.00 0.00 0.00 72 1007.7
20260905224953 89 325 0.0 0.0 0.00 0.00 0.00 72 1007.9
20260905224058 89 325 0.0 1.0 0.00 0.00 0.00 70 1007.6
20260905223123 90 333 0.0 0.0 0.00 0.00 0.00 70 1007.8
20260905222223 90 333 0.0 0.0 0.00 0.00 0.00 69 1007.9
20260905221248 90 324 0.0 0.0 0.00 0.00 0.00 68 1007.9
20260905220309 91 329 0.0 0.0 0.00 0.00 0.00 69 1007.6
20260905215338 91 329 0.0 0.0 0.00 0.00 0.00 67 1007.9
20260905214503 92 325 0.0 0.0 0.00 0.00 0.00 63 1007.8
20260905213528 92 317 0.0 0.0 0.00 0.00 0.00 64 1008.0
20260905212643 92 337 0.0 1.0 0.00 0.00 0.00 59 1007.8
20260905211653 93 337 0.0 1.0 0.00 0.00 0.00 63 1007.6
20260905210709 94 329 0.0 0.0 0.00 0.00 0.00 60 1007.7
20260905205858 93 326 0.0 1.0 0.00 0.00 0.00 61 1008.0
20260905204943 95 326 0.0 1.0 0.00 0.00 0.00 59 1007.9
20260905204038 96 326 0.0 0.0 0.00 0.00 0.00 56 1008.1
20260905203118 97 323 0.0 1.0 0.00 0.00 0.00 56 1008.1
20260905202237 96 318 1.0 1.0 0.00 0.00 0.00 55 1008.3
20260905201328 96 325 1.0 1.0 0.00 0.00 0.00 57 1008.4
20260905200433 97 313 0.0 1.0 0.00 0.00 0.00 57 1008.2
20260905195456 98 325 1.0 1.0 0.00 0.00 0.00 59 1008.2
20260905194653 98 305 0.0 1.0 0.00 0.00 0.00 52 1008.6
20260905193748 98 328 1.0 1.0 0.00 0.00 0.00 49 1008.9
20260905192833 96 341 2.0 2.0 0.00 0.00 0.00 55 1008.8
20260905192023 95 313 0.0 1.0 0.00 0.00 0.00 58 1009.2
20260905191038 96 316 0.0 0.0 0.00 0.00 0.00 56 1009.4
20260905190128 96 325 1.0 1.0 0.00 0.00 0.00 57 1009.5
20260905185218 97 327 1.0 1.0 0.00 0.00 0.00 56 1009.6
20260905184348 98 315 1.0 1.0 0.00 0.00 0.00 56 1009.7
20260905183513 98 319 0.0 1.0 0.00 0.00 0.00 57 1009.7
20260905182653 98 302 1.0 1.0 0.00 0.00 0.00 56 1009.8
20260905181808 97 309 0.0 1.0 0.00 0.00 0.00 59 1010.0
20260905180903 94 324 0.0 0.0 0.00 0.00 0.00 61 1010.3
20260905180043 97 320 1.0 1.0 0.00 0.00 0.00 57 1010.0
20260905175213 96 319 0.0 0.0 0.00 0.00 0.00 59 1010.1
20260905174313 96 312 0.0 1.0 0.00 0.00 0.00 60 1010.4
20260905173343 97 312 2.0 2.0 0.00 0.00 0.00 60 1010.2
20260905172408 96 322 1.0 1.0 0.00 0.00 0.00 58 1010.4
20260905171513 95 316 0.0 1.0 0.00 0.00 0.00 61 1010.6
20260905170658 95 332 2.0 2.0 0.00 0.00 0.00 61 1010.5
20260905165723 94 296 1.0 2.0 0.00 0.00 0.00 62 1010.6
20260905164913 94 300 1.0 1.0 0.00 0.00 0.00 63 1010.8
20260905163928 93 324 0.0 0.0 0.00 0.00 0.00 64 1011.1
20260905163108 93 322 0.0 1.0 0.00 0.00 0.00 64 1011.2
20260905162228 92 309 0.0 1.0 0.00 0.00 0.00 67 1011.2
20260905161423 94 320 0.0 1.0 0.00 0.00 0.00 70 1011.3
20260905160543 93 324 2.0 2.0 0.00 0.00 0.00 66 1011.3
20260905155545 91 327 0.0 0.0 0.00 0.00 0.00 69 1011.7
20260905154623 90 324 0.0 0.0 0.00 0.00 0.00 72 1011.8
20260905153633 90 320 0.0 0.0 0.00 0.00 0.00 74 1011.8
20260905152752 89 306 2.0 2.0 0.00 0.00 0.00 74 1011.9
20260905151823 87 325 0.0 0.0 0.00 0.00 0.00 80 1011.9
20260905150853 86 325 0.0 1.0 0.00 0.00 0.00 83 1012.0
20260905145903 86 323 0.0 0.0 0.00 0.00 0.00 86 1011.9
20260905145003 85 323 0.0 0.0 0.00 0.00 0.00 88 1012.1
20260905144203 84 319 0.0 0.0 0.00 0.00 0.00 88 1011.9
20260905143233 84 318 0.0 0.0 0.00 0.00 0.00 87 1012.3
20260905142418 83 313 0.0 0.0 0.00 0.00 0.00 89 1012.3
20260905141508 83 313 0.0 0.0 0.00 0.00 0.00 90 1012.3
20260905140633 82 312 0.0 0.0 0.00 0.00 0.00 90 1012.5
20260905135708 81 311 0.0 0.0 0.00 0.00 0.00 92 1012.5
20260905134828 80 303 0.0 0.0 0.00 0.00 0.00 93 1012.4
20260905133858 80 303 0.0 0.0 0.00 0.00 0.00 94 1012.4
20260905133038 78 303 0.0 0.0 0.00 0.00 0.00 95 1012.4
20260905132144 78 303 0.0 0.0 0.00 0.00 0.00 96 1012.4
20260905131143 77 303 0.0 0.0 0.00 0.00 0.00 97 1012.8
20260905130143 76 303 0.0 0.0 0.00 0.00 0.00 98 1012.5
20260905125333 75 303 0.0 0.0 0.00 0.00 0.00 98 1012.6
20260905124448 75 303 0.0 0.0 0.00 0.00 0.00 98 1012.7
20260905123448 75 303 0.0 0.0 0.00 0.00 0.00 99 1013.0
20260905122458 74 303 0.0 0.0 0.00 0.00 0.00 99 1012.4
20260905121633 74 303 0.0 0.0 0.00 0.00 0.00 99 1012.3
20260905120819 74 303 0.0 0.0 0.00 0.00 0.00 99 1012.5
20260905120018 73 303 0.0 0.0 0.00 0.00 0.00 99 1012.3
20260905115033 73 303 0.0 0.0 0.00 0.00 0.00 99 1012.4
20260905114127 73 303 0.0 0.0 0.00 0.00 0.00 99 1012.6
20260905113218 73 303 0.0 0.0 0.00 0.00 0.00 98 1012.0
20260905112238 74 303 0.0 0.0 0.00 0.00 0.00 98 1011.9
20260905111318 74 303 0.0 0.0 0.00 0.00 0.00 98 1011.9
20260905110333 73 303 0.0 0.0 0.00 0.00 0.00 99 1011.5
20260905105338 74 303 0.0 0.0 0.00 0.00 0.00 98 1011.5
20260905104538 73 303 0.0 0.0 0.00 0.00 0.00 98 1011.8
20260905103538 74 303 0.0 0.0 0.00 0.00 0.00 98 1011.4
20260905102608 75 303 0.0 0.0 0.00 0.00 0.00 97 1011.6
20260905101738 74 303 0.0 0.0 0.00 0.00 0.00 96 1011.5
20260905100818 75 303 0.0 0.0 0.00 0.00 0.00 97 1011.3
20260905095848 75 303 0.0 0.0 0.00 0.00 0.00 97 1011.3
20260905094946 74 303 0.0 0.0 0.00 0.00 0.00 96 1011.4
20260905093958 75 303 0.0 0.0 0.00 0.00 0.00 96 1011.5
20260905093143 75 303 0.0 0.0 0.00 0.00 0.00 96 1011.4
20260905092233 74 303 0.0 0.0 0.00 0.00 0.00 99 1011.3
20260905091248 73 303 0.0 0.0 0.00 0.00 0.00 99 1011.4
20260905090443 74 303 0.0 0.0 0.00 0.00 0.00 99 1011.5
20260905085518 74 303 0.0 0.0 0.00 0.00 0.00 99 1011.3
20260905084543 74 302 0.0 0.0 0.00 0.00 0.00 99 1011.3
20260905083618 74 303 0.0 0.0 0.00 0.00 0.00 99 1011.4
20260905082743 74 303 0.0 0.0 0.00 0.00 0.00 99 1011.4
20260905081838 74 303 0.0 0.0 0.00 0.00 0.00 99 1011.4
20260905080923 74 303 0.0 0.0 0.00 0.00 0.00 99 1011.4
20260905075952 74 302 0.0 0.0 0.00 0.00 0.00 99 1011.3
20260905075128 73 303 0.0 0.0 0.00 0.00 0.00 99 1011.3
20260905074313 74 303 0.0 0.0 0.00 0.00 0.00 99 1011.4
20260905073318 74 302 0.0 0.0 0.00 0.00 0.00 99 1011.4
20260905072338 74 302 0.0 1.0 0.00 0.00 0.00 99 1011.3
20260905071515 74 302 0.0 0.0 0.00 0.00 0.00 98 1011.4
20260905070538 74 302 0.0 0.0 0.00 0.00 0.00 98 1011.3
20260905065708 74 302 0.0 0.0 0.00 0.00 0.00 98 1011.0
20260905064803 74 302 0.0 0.0 0.00 0.00 0.00 99 1011.2
20260905063958 74 302 0.0 0.0 0.00 0.00 0.00 99 1010.9
20260905063008 74 302 0.0 0.0 0.00 0.00 0.00 99 1011.3
20260905062018 74 302 0.0 0.0 0.00 0.00 0.00 98 1011.2
20260905061133 74 302 0.0 0.0 0.00 0.00 0.00 98 1011.7
20260905060215 75 302 0.0 0.0 0.00 0.00 0.00 98 1011.3
20260905055238 75 302 1.0 1.0 0.00 0.00 0.00 97 1011.3
20260905054333 75 302 0.0 0.0 0.00 0.00 0.00 96 1011.5
20260905053403 76 302 0.0 0.0 0.00 0.00 0.00 96 1011.4
20260905052508 76 302 0.0 0.0 0.00 0.00 0.00 94 1011.5
20260905051508 76 302 0.0 0.0 0.00 0.00 0.00 93 1011.5
20260905050608 76 302 0.0 0.0 0.00 0.00 0.00 94 1011.6
20260905045803 77 302 0.0 0.0 0.00 0.00 0.00 92 1011.4
20260905044828 78 302 0.0 0.0 0.00 0.00 0.00 88 1011.4
20260905044028 77 302 0.0 0.0 0.00 0.00 0.00 90 1011.5
20260905043031 77 302 0.0 0.0 0.00 0.00 0.00 90 1011.3
20260905042158 77 302 0.0 0.0 0.00 0.00 0.00 91 1011.6
20260905041338 78 302 0.0 0.0 0.00 0.00 0.00 92 1011.5
20260905040403 79 302 0.0 0.0 0.00 0.00 0.00 86 1011.5
20260905035413 80 302 0.0 0.0 0.00 0.00 0.00 83 1011.5
20260905034423 76 302 0.0 0.0 0.00 0.00 0.00 89 1011.5
20260905033558 77 302 0.0 0.0 0.00 0.00 0.00 93 1011.7
20260905032733 77 302 0.0 0.0 0.00 0.00 0.00 92 1012.0
20260905031823 77 302 0.0 0.0 0.00 0.00 0.00 93 1011.8
20260905030848 77 302 0.0 0.0 0.00 0.00 0.00 93 1012.1
20260905025948 78 302 0.0 0.0 0.00 0.00 0.00 91 1012.0
20260905025128 78 302 0.0 0.0 0.00 0.00 0.00 90 1011.9
20260905024248 78 302 0.0 0.0 0.00 0.00 0.00 90 1012.2
20260905023428 78 302 0.0 0.0 0.00 0.00 0.00 89 1012.0
20260905022543 79 302 0.0 0.0 0.00 0.00 0.00 89 1012.2
20260905021625 79 302 0.0 0.0 0.00 0.00 0.00 86 1011.9
20260905020728 79 302 1.0 1.0 0.00 0.00 0.00 86 1011.9
20260905015843 80 303 0.0 1.0 0.00 0.00 0.00 86 1011.9
20260905014958 80 303 1.0 1.0 0.00 0.00 0.00 86 1012.1
20260905014103 80 303 0.0 1.0 0.00 0.00 0.00 85 1012.1
20260905013108 80 302 0.0 1.0 0.00 0.00 0.00 85 1011.7